GFSNGP_700_spd_231.txt.gz
Wind_Speed
15 12 11 9 6 10 16 19 13 13 14 10 16 16 13 15 15 17 15 14 14 20 23 27 22 20 20 21 22 23 24 25 26 26 27 27 28 28 28 28 29 31 32 32
16 14 10 8 7 7 11 19 12 12 16 13 13 15 16 19 19 19 17 16 19 23 24 28 25 23 22 21 21 21 22 24 25 25 27 28 28 30 30 30 29 29 31 32
9 9 6 8 8 8 9 13 15 14 9 11 13 18 15 13 13 16 18 20 22 23 24 29 29 25 23 22 22 22 23 25 24 24 25 27 28 30 31 32 32 32 32 32
5 6 1 6 6 6 8 10 9 9 11 12 10 12 14 15 12 16 20 21 23 25 28 29 28 25 23 22 23 24 24 24 24 24 25 26 27 27 28 29 30 31 32 33
6 11 7 11 7 12 14 13 10 10 9 12 8 9 12 19 19 19 20 22 26 28 29 29 25 23 23 23 24 25 25 24 24 25 26 27 27 27 28 28 27 28 30 31
11 3 6 10 11 13 16 14 12 14 12 12 8 11 8 11 14 17 21 23 28 28 28 25 23 23 24 24 25 25 24 24 25 26 26 26 26 26 26 27 26 27 28 30
8 7 6 6 8 11 15 18 17 16 13 15 13 9 11 13 16 21 23 28 26 25 24 23 22 23 23 24 24 24 24 24 25 25 25 25 25 25 25 25 25 25 23 23
15 9 7 10 11 14 15 13 9 10 11 12 13 13 16 18 21 25 26 24 23 22 21 20 21 22 23 24 24 24 24 24 24 24 24 24 24 24 25 23 22 21 18 18
9 9 8 3 10 15 18 15 7 9 11 13 14 16 19 23 23 22 21 20 19 19 19 20 21 22 23 23 22 22 22 22 23 24 24 23 22 22 22 21 18 16 15 14
11 12 11 8 5 7 8 5 2 5 7 11 16 21 21 21 19 18 18 18 18 19 20 20 21 21 21 21 21 20 21 21 22 22 22 22 21 21 21 16 14 13 13 14
10 9 10 8 7 9 8 6 6 11 12 15 17 17 17 17 17 16 17 18 18 19 20 21 20 20 20 19 19 19 20 20 20 20 20 19 20 19 20 18 15 11 12 14
15 11 9 6 7 8 8 9 10 13 15 19 18 16 15 15 15 16 17 18 19 20 21 20 20 19 18 18 18 18 19 19 19 19 18 16 15 20 20 19 19 20 18 16
15 14 8 10 8 9 11 12 14 15 17 18 15 14 14 15 16 17 18 18 19 19 20 19 19 19 19 18 18 18 18 18 18 18 17 16 15 14 18 21 21 21 21 19
6 4 11 15 9 10 12 15 15 14 16 15 13 12 15 16 16 16 16 17 17 17 18 18 18 18 18 18 18 18 18 18 18 18 17 16 16 14 13 13 15 17 20 20
7 7 7 9 13 15 13 14 14 15 17 16 14 12 13 14 14 15 16 16 17 17 18 18 17 17 17 18 18 18 18 18 18 18 18 16 15 15 15 14 13 14 16 19
8 9 11 11 10 9 11 12 14 17 18 16 10 10 12 13 13 13 15 16 17 17 18 18 18 18 18 18 18 19 19 18 18 18 18 16 14 15 15 16 15 15 13 13
8 8 12 13 12 11 13 11 14 16 17 12 10 10 9 11 13 14 15 15 16 18 18 18 18 18 18 17 16 17 17 17 17 17 16 15 14 13 14 14 14 14 14 15
11 12 14 17 12 11 11 12 15 13 11 10 15 14 13 13 15 16 16 17 17 18 18 18 18 18 17 16 15 14 15 15 16 16 15 14 14 14 14 14 15 15 14 15
11 12 15 13 9 9 10 12 12 13 15 14 19 19 18 17 18 19 20 19 17 18 19 17 16 17 17 16 15 14 15 15 15 14 15 15 14 14 13 13 13 13 13 13
9 11 10 7 8 11 12 14 16 17 18 18 27 23 21 20 20 20 22 21 20 19 18 16 14 14 17 16 16 16 15 15 15 14 13 14 13 13 13 13 13 12 13 12
9 11 8 6 9 13 17 19 21 22 24 25 21 22 20 18 18 19 20 20 19 20 20 15 15 13 16 17 17 18 17 15 14 15 13 13 11 11 11 12 13 13 14 14
15 17 16 13 16 20 21 25 24 24 21 23 23 19 20 20 20 21 20 18 16 18 20 20 16 16 14 16 15 16 17 17 14 14 14 12 11 10 9 11 13 14 15 16
20 19 14 16 20 22 22 25 26 23 26 25 24 23 29 24 21 21 22 16 18 20 20 19 19 19 17 18 17 19 18 18 17 15 15 14 12 11 9 9 11 14 17 18
23 22 17 15 15 17 19 24 28 31 29 30 31 27 30 32 23 22 22 23 21 22 21 16 14 17 20 20 20 22 21 18 17 16 16 16 15 13 11 10 11 13 16 18
23 21 19 15 14 12 18 21 21 21 26 32 34 30 29 27 32 30 33 28 30 22 19 15 16 17 17 18 21 21 19 18 17 17 16 16 16 15 12 10 10 12 14 16
22 19 18 17 15 16 17 18 18 17 18 19 21 24 29 32 35 33 31 22 19 18 20 20 19 17 21 26 26 29 19 15 17 15 16 16 16 15 13 10 10 12 13 15
19 18 16 13 11 15 16 15 14 13 15 15 15 15 17 20 21 21 19 23 21 20 24 22 22 22 25 27 29 29 21 15 16 16 15 14 14 14 13 10 10 11 12 13

GFSNGP_700_spd_234.txt.gz
Wind_Speed
24 17 16 14 12 10 11 13 14 15 14 10 12 7 6 9 12 10 10 10 9 9 16 20 23 24 21 20 20 21 22 23 23 24 25 25 26 26 26 27 27 26 26 27
18 17 13 12 11 13 14 16 18 17 12 14 12 11 13 10 10 11 9 9 10 15 19 21 24 26 26 24 22 23 23 23 24 25 25 26 26 26 26 27 29 30 29 28
13 14 11 10 14 12 8 8 8 13 14 13 6 11 8 4 2 4 8 11 12 17 20 22 25 28 28 25 24 23 23 25 25 24 24 24 25 26 27 27 28 29 29 29
9 13 3 10 6 6 5 6 10 10 10 10 10 6 5 2 4 4 7 12 16 20 22 25 29 29 27 22 22 24 24 24 24 23 24 25 26 27 26 26 28 28 28 29
7 18 9 8 9 8 9 9 9 10 10 8 7 6 8 5 6 10 13 16 19 21 24 27 31 30 25 23 23 23 24 24 24 23 23 25 26 27 27 27 27 28 29 30
9 4 4 7 10 10 12 17 10 10 10 11 9 8 6 5 8 11 14 18 21 25 26 32 30 26 25 24 24 24 25 25 24 24 24 25 26 26 26 27 27 27 27 28
12 6 3 6 7 9 8 15 9 12 14 13 11 8 9 9 11 13 17 21 23 26 32 29 25 24 24 25 25 25 25 25 24 24 24 25 25 26 26 26 25 25 25 25
10 6 5 9 9 11 9 12 12 9 9 11 13 10 11 13 14 16 19 23 29 30 27 24 23 23 24 24 25 25 25 24 23 23 23 24 24 25 25 24 22 22 21 19
6 5 5 5 6 11 12 15 12 8 10 12 13 13 15 17 19 24 29 28 26 24 23 22 22 23 23 24 24 25 24 22 22 22 22 23 24 24 23 22 21 19 18 15
9 9 8 8 8 8 8 8 4 4 7 6 10 14 17 21 25 25 24 22 22 21 21 22 22 22 23 23 24 23 23 22 21 21 22 23 24 23 22 21 18 16 15 14
10 9 10 10 10 7 5 6 2 2 6 8 13 16 20 20 18 19 19 19 19 20 21 21 22 22 23 23 23 22 22 21 20 20 21 22 24 23 23 23 17 17 17 14
12 11 13 9 9 8 5 4 5 9 12 16 17 16 13 12 13 15 16 18 19 20 22 22 22 21 21 22 21 21 20 20 20 20 20 20 22 24 24 24 22 20 20 17
14 13 11 11 9 8 7 9 11 14 16 18 17 12 10 11 13 15 17 19 20 20 20 19 19 20 20 20 20 20 20 20 20 19 20 20 21 22 22 23 22 21 20 17
11 12 13 14 10 8 8 12 14 15 17 17 15 13 12 13 14 15 17 17 17 18 19 19 20 20 20 20 20 20 19 20 20 20 20 20 20 21 19 18 19 20 19 18
7 7 7 9 10 10 12 13 14 15 16 16 16 15 13 13 13 15 16 18 18 19 19 19 19 20 20 20 19 19 19 20 20 20 20 19 19 19 18 18 17 18 18 17
7 8 7 7 7 8 11 11 12 15 14 16 13 9 10 12 13 15 16 17 17 17 18 19 19 19 19 19 20 20 20 20 20 19 19 19 18 18 17 16 16 15 16 15
6 6 6 4 6 9 7 8 11 13 14 14 8 9 10 11 13 16 17 17 18 18 19 19 18 18 19 19 19 19 20 20 19 19 18 17 17 17 17 16 15 14 15 15
11 8 6 8 10 8 9 9 10 11 9 11 11 11 11 14 16 18 20 19 19 19 20 20 19 19 19 19 18 18 18 18 17 18 17 16 16 16 16 15 15 14 15 14
13 9 6 7 11 8 8 8 10 11 10 12 14 16 19 22 19 20 22 20 18 19 21 21 20 20 20 18 17 17 16 16 16 17 17 15 15 15 14 13 12 13 14 15
14 7 6 8 8 9 6 16 10 17 10 20 18 22 25 23 23 22 22 21 20 21 22 21 19 19 19 20 18 16 15 15 16 16 17 14 14 14 14 12 12 13 14 14
1 6 8 7 10 14 15 16 18 19 18 19 22 25 23 20 16 17 20 21 17 21 23 23 20 18 21 21 21 19 17 15 16 17 17 15 13 13 14 13 12 12 13 14
5 8 14 14 13 16 16 17 21 21 24 28 27 22 23 23 20 21 24 24 15 18 21 21 21 19 20 19 21 20 19 18 18 18 17 17 14 12 13 14 13 12 13 14
13 14 14 14 13 14 18 22 23 25 26 29 23 30 24 26 28 25 27 23 26 22 23 25 24 22 21 22 23 20 22 21 21 20 19 18 16 12 12 14 14 13 14 14
18 19 20 19 16 13 14 16 19 21 25 27 32 32 35 35 34 31 30 28 27 22 25 27 28 26 21 22 19 21 19 19 22 23 21 18 17 15 13 14 14 13 14 14
23 23 21 19 17 13 15 18 21 21 21 19 20 21 23 26 30 28 32 30 28 33 34 27 31 28 24 22 20 20 20 21 23 22 23 20 17 16 14 15 15 14 13 13
22 20 18 18 19 15 15 17 19 19 17 15 14 15 17 20 23 25 26 27 28 29 29 27 23 23 24 24 24 23 21 23 27 26 22 20 17 17 17 17 15 14 13 12
18 20 20 17 15 13 17 20 20 20 20 21 22 20 20 19 20 21 22 26 28 25 21 22 21 24 26 23 25 27 29 30 30 24 21 20 16 15 16 16 15 14 13 11

GFSNGP_700_spd_237.txt.gz
Wind_Speed
22 23 17 14 18 16 16 13 9 15 16 7 5 2 4 9 12 15 15 15 13 9 7 9 13 18 17 18 20 18 16 16 18 20 21 21 21 21 21 21 21 21 22 24
24 24 18 18 16 15 14 15 17 16 10 7 10 9 11 8 6 9 10 12 10 8 7 11 17 19 21 23 24 21 19 20 20 20 21 21 22 22 22 24 24 24 24 23
12 18 16 13 18 17 14 14 9 9 9 9 6 3 6 3 5 7 7 8 7 9 10 15 19 22 24 25 24 21 20 21 22 23 22 21 21 21 22 23 24 24 25 25
11 13 6 11 13 14 13 10 6 6 7 9 6 6 9 9 10 8 4 5 8 11 15 18 22 25 28 28 24 22 21 22 22 23 23 22 23 23 24 25 26 26 26 26
6 14 7 8 12 12 12 8 8 8 10 10 7 5 8 11 10 10 10 10 11 15 19 22 25 27 32 27 22 21 22 23 24 24 24 23 23 23 24 25 26 26 26 26
10 7 8 12 12 11 8 10 9 9 10 10 8 8 6 8 11 10 10 11 14 18 22 25 27 31 29 25 22 22 23 24 24 24 23 22 23 23 24 25 26 26 26 26
14 8 7 7 8 6 5 5 7 7 11 11 12 11 10 11 11 10 11 13 16 21 24 28 31 30 24 22 22 22 23 23 24 23 22 22 22 23 24 25 26 26 25 25
11 8 6 9 9 6 6 9 9 10 9 11 12 12 11 12 11 10 11 14 19 23 27 31 29 25 22 22 22 23 23 23 24 23 22 22 22 23 23 23 23 23 22 21
12 10 9 8 5 6 10 11 12 13 12 12 14 12 11 11 11 12 15 19 25 28 28 26 24 22 21 22 22 23 23 22 22 22 22 22 21 21 21 22 22 21 19 18
8 7 8 6 6 7 9 10 8 6 9 13 10 10 12 13 16 19 24 27 27 25 24 22 21 21 21 21 22 22 21 21 21 21 21 22 22 21 21 21 23 22 19 17
5 4 4 4 5 9 11 9 7 5 9 7 8 11 15 19 22 24 24 23 22 21 21 20 20 21 21 21 20 20 20 20 20 21 21 22 23 24 23 22 21 20 19 17
6 7 7 9 9 12 11 7 6 6 8 11 15 18 19 18 18 17 17 17 18 19 19 20 20 20 19 19 20 20 21 20 20 21 21 21 23 23 23 24 23 21 18 17
10 11 12 10 11 13 12 11 9 9 12 15 17 16 12 12 14 14 15 17 17 17 17 18 18 18 19 19 20 20 20 20 20 21 20 20 20 21 23 23 22 21 19 17
9 11 14 15 16 14 14 13 12 15 18 18 18 15 14 14 15 15 14 14 14 15 16 17 17 18 19 19 19 19 19 19 19 19 19 19 19 19 20 20 21 21 19 17
8 7 10 13 14 13 14 14 15 18 18 19 18 16 14 12 12 11 12 13 14 15 15 16 17 17 18 19 19 19 19 19 19 19 18 18 18 18 17 17 17 18 19 17
7 8 9 9 10 12 13 15 16 16 18 18 17 15 10 8 9 11 12 13 14 15 16 16 16 16 17 17 18 18 18 18 18 18 18 17 17 17 17 17 17 16 16 16
9 7 7 5 5 6 7 11 12 16 16 16 16 9 8 8 10 13 15 15 16 16 16 16 16 16 17 18 18 18 18 18 18 18 18 17 17 17 16 16 16 14 13 13
12 11 10 9 8 7 9 12 14 14 13 15 12 10 10 11 15 19 19 18 18 18 18 18 17 17 18 18 18 17 17 17 17 17 17 17 17 17 15 15 14 13 13 13
16 15 13 10 10 11 10 14 13 15 14 14 13 14 12 17 20 20 21 23 20 19 21 19 17 16 17 18 17 16 16 16 17 17 16 17 16 17 16 16 14 12 12 12
14 12 11 7 11 11 12 12 15 15 20 22 20 16 19 20 23 22 21 19 17 17 21 23 20 18 17 18 19 19 18 17 16 17 16 16 17 17 17 17 15 13 12 13
3 5 2 4 9 12 15 19 21 22 24 21 22 20 22 26 28 22 22 23 19 18 20 24 25 22 17 16 19 22 20 19 17 17 17 17 18 17 17 17 16 14 13 13
7 4 5 8 9 12 16 19 21 22 24 25 25 30 32 28 24 26 27 26 25 24 23 27 27 27 24 22 23 23 21 22 21 21 19 18 18 18 17 17 16 15 14 14
3 8 11 12 13 14 15 17 20 24 27 28 30 30 30 32 28 33 35 32 28 27 30 27 30 29 25 25 26 24 24 24 20 19 18 18 19 20 18 18 16 16 16 15
9 15 18 19 18 16 16 16 16 16 17 20 23 25 26 26 28 31 35 37 38 37 37 34 33 24 22 29 32 29 25 21 18 17 19 21 20 21 20 20 19 17 17 17
19 22 23 21 17 16 16 17 17 16 17 18 18 17 18 18 18 18 20 21 23 26 31 31 35 36 34 34 31 35 23 22 21 22 21 22 25 19 23 22 21 19 17 17
21 20 18 16 15 15 16 17 16 17 17 18 17 18 19 22 23 22 22 22 22 22 24 28 29 29 29 30 32 31 25 26 26 27 27 26 27 24 21 21 23 22 19 17
14 15 14 16 15 15 17 18 18 20 23 24 25 25 25 26 26 27 27 29 27 27 28 27 23 24 24 26 24 24 26 26 27 28 35 31 28 29 20 20 21 21 19 17

GFSNGP_700_spd_240.txt.gz
Wind_Speed
23 11 11 12 11 13 14 14 12 14 13 13 5 5 9 14 15 20 20 18 17 16 13 9 9 11 13 13 14 13 12 13 14 15 17 18 18 18 18 18 20 20 21 22
18 13 14 15 14 16 17 15 14 15 14 8 9 10 13 15 14 15 16 18 18 17 13 10 10 12 16 18 18 17 15 14 15 16 18 19 20 20 20 20 21 21 21 22
18 14 13 15 21 18 18 14 14 13 6 9 10 7 9 16 11 12 16 15 16 14 13 11 12 16 20 22 22 20 17 17 17 18 19 20 20 20 21 21 22 22 23 23
6 6 11 11 13 16 17 15 14 13 11 10 9 10 8 14 15 15 16 15 12 11 11 12 14 18 21 24 25 20 17 17 19 19 20 21 20 20 21 22 22 23 23 23
9 14 10 7 14 14 13 13 14 13 11 12 10 8 10 18 18 16 15 13 12 12 12 14 17 21 24 28 26 21 20 19 19 21 22 21 20 20 21 22 23 24 25 25
8 16 12 7 9 9 12 15 13 10 11 12 11 7 9 16 17 17 16 15 14 14 16 18 21 24 27 29 24 22 21 21 21 21 21 20 20 20 21 22 23 23 24 24
18 17 17 10 7 12 11 6 5 5 9 11 10 12 14 15 20 19 17 15 15 16 18 20 23 26 29 25 22 21 21 21 22 21 20 19 19 19 20 20 21 22 23 24
11 12 17 12 14 11 8 6 8 9 10 11 11 13 14 16 17 17 15 14 16 18 20 22 26 28 26 23 22 21 21 22 21 19 19 19 19 19 19 20 21 21 23 24
9 6 9 10 18 14 8 9 10 10 11 13 14 13 14 14 17 17 16 15 17 20 22 25 26 24 23 22 22 22 22 21 19 18 18 19 19 19 18 20 20 20 21 21
9 13 13 14 13 10 9 10 9 10 10 10 13 12 11 11 11 12 15 17 20 22 24 23 22 21 21 21 21 21 19 18 18 18 18 19 19 19 19 19 19 19 19 18
9 8 10 10 9 9 10 11 12 11 10 12 13 11 12 14 16 19 20 20 22 22 22 21 20 20 20 19 18 17 17 18 18 19 19 19 18 19 18 19 19 19 18 17
5 10 12 10 10 11 13 14 13 10 9 10 12 15 18 20 20 19 18 19 18 19 19 20 20 19 18 17 16 16 17 17 18 18 18 18 19 19 18 18 18 17 16 17
13 12 12 13 12 13 16 16 15 14 12 11 15 18 20 16 15 15 16 16 17 18 18 18 17 17 16 16 16 16 16 17 18 18 18 18 19 19 20 18 18 17 16 14
12 13 15 14 15 15 19 19 15 13 13 15 19 21 18 16 16 16 17 16 15 15 15 15 15 15 15 15 16 16 16 17 17 17 17 18 18 18 18 18 19 18 14 14
11 11 11 13 16 17 18 18 16 15 16 19 22 21 19 17 15 12 11 11 11 12 13 14 14 14 15 16 16 16 16 16 16 17 17 17 17 17 17 17 17 17 17 15
11 10 11 12 12 13 14 14 15 15 17 22 23 21 18 14 10 9 8 9 11 12 13 14 15 15 15 16 16 16 16 16 16 16 17 17 17 16 16 16 16 16 15 15
11 10 8 9 9 9 10 13 14 18 20 21 22 19 13 9 7 7 10 12 13 14 15 16 16 16 16 16 16 16 16 17 16 17 17 16 17 17 16 16 16 15 15 14
14 13 11 11 11 10 12 13 15 18 19 21 18 14 10 10 10 15 17 18 18 18 19 19 18 17 16 16 17 17 16 16 17 17 17 17 18 17 16 16 15 15 15 15
17 16 15 13 14 16 16 15 18 21 20 19 18 17 17 15 17 19 21 23 25 20 18 21 19 17 16 18 19 17 16 16 17 18 16 16 17 17 16 16 16 15 15 16
14 16 18 16 19 16 12 13 18 21 22 21 24 27 27 19 21 23 25 28 25 20 20 24 22 21 20 20 20 19 18 18 17 17 17 16 17 18 18 16 15 16 16 15
20 21 20 21 16 13 13 17 22 23 24 27 28 30 27 26 19 26 30 31 24 23 24 26 27 26 26 25 23 23 20 22 21 19 21 20 19 18 18 18 18 17 17 16
9 4 2 4 8 11 13 16 19 23 25 26 25 25 26 28 31 35 35 31 29 31 28 28 32 29 29 23 26 29 25 21 24 22 22 23 18 18 18 19 19 18 18 17
7 7 6 9 14 17 18 19 19 20 21 24 26 29 31 32 31 32 31 31 33 34 35 36 34 30 32 33 37 39 30 26 25 24 22 18 16 18 18 20 21 20 20 19
11 12 13 17 19 20 19 19 19 18 17 18 18 18 19 18 16 15 16 17 17 19 22 25 29 31 31 33 37 32 32 29 29 30 23 21 21 21 23 22 25 22 21 21
17 18 18 18 18 18 18 17 16 16 17 15 16 17 18 18 19 18 19 18 18 19 20 20 20 21 26 31 33 34 34 34 31 32 28 23 24 25 22 23 25 25 24 22
18 18 17 16 16 15 14 13 14 15 16 17 18 21 23 24 26 27 27 27 26 27 27 25 24 24 26 27 27 31 31 27 29 34 26 26 27 28 29 32 27 27 25 22
14 13 14 16 16 16 19 18 20 20 21 23 24 24 26 28 29 31 31 31 31 31 31 31 28 28 28 27 26 25 24 23 23 22 27 30 27 33 32 32 25 28 25 23

GFSNGP_700_spd_246.txt.gz
Wind_Speed
20 19 14 24 18 23 24 18 13 4 8 11 21 16 15 13 17 17 12 16 16 16 13 13 14 12 11 13 15 18 20 21 18 16 15 16 16 17 18 19 20 21 21 21
25 13 24 8 16 14 15 13 12 11 12 13 10 9 11 13 17 21 15 17 16 16 13 15 16 14 14 15 18 19 21 22 20 17 16 15 16 17 19 21 22 21 22 21
25 22 18 23 18 18 15 15 15 17 11 9 7 7 5 14 16 20 13 15 18 17 13 15 16 16 16 16 17 20 23 24 20 16 16 16 17 19 20 21 21 21 21 21
23 21 20 19 7 13 20 19 20 8 9 8 12 4 5 10 17 18 16 15 16 16 13 15 16 15 16 16 18 22 26 24 19 17 17 17 19 20 22 21 20 20 21 21
22 23 16 12 6 3 9 9 9 10 1 16 7 4 7 4 16 19 20 18 14 15 15 16 16 14 17 18 20 24 27 26 20 19 19 20 21 23 22 21 20 19 19 19
9 3 2 13 14 14 12 14 9 14 9 4 11 4 7 6 12 15 17 17 18 19 19 17 16 17 20 21 22 25 28 25 21 20 20 21 22 21 20 20 20 19 19 21
11 10 4 13 4 21 17 23 24 12 5 4 4 5 2 5 12 15 18 22 24 25 23 18 18 21 22 24 25 27 27 22 20 20 21 22 21 19 19 19 20 20 20 20
15 17 10 2 12 7 9 14 20 10 5 3 2 2 5 5 10 13 21 21 22 27 25 23 21 22 24 25 28 29 25 22 21 21 21 20 19 19 19 19 19 19 20 20
15 2 14 9 6 12 5 21 11 12 8 4 8 8 6 7 9 20 24 20 28 27 27 21 20 23 26 29 29 27 23 22 22 20 19 19 19 18 19 20 20 20 21 21
18 1 7 12 18 4 2 6 8 8 7 7 10 12 8 8 8 9 11 12 15 19 19 20 22 25 29 30 26 23 23 22 20 19 18 19 18 19 20 18 19 19 20 20
5 8 5 5 4 3 8 6 11 7 5 10 11 12 11 7 10 13 15 17 20 23 24 25 25 26 25 23 22 23 22 20 19 19 19 18 18 17 18 18 19 20 20 20
12 3 7 8 5 5 4 7 6 6 9 11 11 10 12 11 14 16 19 18 18 18 20 21 20 20 21 22 21 20 19 19 19 18 18 19 18 18 18 18 19 20 20 20
5 3 4 3 0 2 4 7 7 12 13 14 13 11 12 12 15 18 19 18 17 18 19 20 20 21 21 19 19 18 18 18 18 18 19 19 19 19 19 19 19 17 17 19
12 9 6 6 5 4 7 9 10 9 12 14 14 14 14 17 18 20 21 20 18 17 18 17 17 17 17 17 17 17 17 17 18 18 20 20 20 19 18 18 18 18 18 15
5 6 8 7 7 9 7 10 8 9 7 12 12 13 16 20 21 22 20 18 15 13 13 13 14 15 16 16 16 17 17 18 19 19 19 20 19 18 17 17 17 17 18 16
6 4 4 4 5 3 6 11 9 12 14 17 13 15 18 20 21 18 13 10 9 8 10 12 15 17 18 18 18 18 18 17 18 18 19 20 19 18 17 16 17 16 16 18
4 5 5 4 1 1 4 6 8 15 17 15 18 18 15 15 17 16 12 10 9 11 13 14 17 18 18 17 17 17 17 17 18 17 18 17 16 15 16 19 18 17 16 18
8 11 11 7 3 1 1 4 6 11 16 11 15 18 15 13 16 18 17 20 22 25 20 22 25 22 18 16 18 17 16 16 18 18 18 17 17 17 18 19 19 18 17 19
17 17 16 15 12 15 15 15 17 20 23 20 27 1 12 15 21 22 23 26 28 23 25 25 28 29 22 16 18 20 18 19 20 20 18 18 18 18 17 19 20 20 17 17
20 17 13 13 13 13 14 15 16 17 20 23 25 24 18 17 22 26 26 25 25 27 24 20 23 30 26 28 24 18 19 19 18 18 18 18 22 18 20 20 21 23 23 20
10 9 10 12 14 16 20 22 24 23 21 25 20 26 21 23 25 26 28 31 29 24 24 24 28 26 34 31 27 30 29 26 25 26 24 24 24 22 26 25 22 20 17 19
12 11 13 14 14 13 12 14 13 13 15 18 20 22 27 27 23 23 25 25 23 23 18 26 23 21 25 26 30 30 36 35 34 34 29 28 33 26 32 32 24 24 22 19
10 14 17 15 12 11 17 17 21 22 22 21 20 20 19 21 16 14 15 15 19 17 20 27 23 25 21 22 23 25 26 29 30 30 31 32 29 35 38 34 30 30 25 26
14 12 19 21 15 6 14 17 13 9 10 10 13 15 15 11 22 23 25 19 24 30 23 28 31 26 29 28 27 27 27 27 26 26 27 27 31 39 45 36 33 29 36 30
3 7 4 4 4 11 14 15 16 18 16 19 23 24 20 22 28 29 30 24 28 31 32 31 33 25 32 28 28 31 32 21 26 30 28 28 26 27 33 32 37 30 32 35
4 10 13 17 15 13 17 19 19 19 20 20 21 22 25 26 32 33 32 33 34 35 35 36 34 30 32 29 29 34 37 36 31 32 35 34 31 37 31 35 29 28 32 32
12 12 9 16 19 18 19 20 23 22 26 23 22 24 26 29 33 35 33 32 34 36 37 37 36 37 39 42 42 40 39 43 36 36 37 34 35 34 36 40 30 34 34 36